Change the Weather History Date:

Wednesday, March 6, 2013

  Actual Average (KIPT) Record (KIPT)
Temperature  
Mean Temperature 38 °F 35 °F  
Max Temperature 44 °F 44 °F 68 °F (1946)
Min Temperature 33 °F 25 °F -1 °F (1978)
Degree Days  
Heating Degree Days 26 30  
Month to date heating degree days 187  
Since 1 July heating degree days 4654  
Cooling Degree Days 0 0  
Month to date cooling degree days 0  
Year to date cooling degree days 0  
Moisture  
Dew Point 27 °F    
Average Humidity 63    
Maximum Humidity 72    
Minimum Humidity 53    
Precipitation  
Precipitation 0.00 in 0.08 in 1.78 in (2011)
Month to date precipitation 0.50  
Year to date precipitation 5.54  
Snow  
Snow 0.00 in 0.30 in 6.00 in (2011)
Month to date snowfall 1.8  
Since 1 July snowfall 29.8  
Snow Depth -    
Sea Level Pressure  
Sea Level Pressure 29.93 in    
Wind  
Wind Speed 9 mph (NNE)    
Max Wind Speed 20 mph    
Max Gust Speed 28 mph    
Visibility 10 miles    
Events      
T = Trace of Precipitation, MM = Missing Value Source: NWS Daily Summary

Daily Weather History Graph

Daily Weather History Graph

Search for Another Location

Airport or City:

Trip Planner

Search our weather history database for the weather conditions in past years. The results will help you decide how hot, cold, wet, or windy it might be!

Date:

Astronomy

Mar. 06, 2013 Rise Set
Actual Time 6:33 AM EST 6:04 PM EST
Civil Twilight 6:05 AM EST 6:31 PM EST
Nautical Twilight 5:34 AM EST 7:03 PM EST
Astronomical Twilight 5:02 AM EST 7:35 PM EST
Moon 2:42 AM EST (3/6) 12:42 PM EST (3/6)
Length of Visible Light 12h 26m
Length of Day
11h 31m
Waning Crescent, 30% of the Moon is Illuminated
Mar 6
Waning Crescent
Mar 11
New
Mar 19
First Quarter
Mar 27
Full
Apr 3
Last Quarter

Hourly Weather History & Observations

Time (EST) Temp. Windchill Dew Point Humidity Pressure Visibility Wind Dir Wind Speed Gust Speed Precip Events Conditions
12:53 AM 33.1 °F - 25.0 °F 72% 29.89 in 10.0 mi Calm Calm - N/A   Clear
1:53 AM 35.1 °F 32.2 °F 26.1 °F 70% 29.87 in 10.0 mi NE 3.5 mph - N/A   Clear
2:53 AM 35.1 °F 30.1 °F 26.1 °F 70% 29.84 in 10.0 mi ENE 5.8 mph - N/A   Clear
3:53 AM 35.1 °F 30.1 °F 26.1 °F 70% 29.83 in 10.0 mi NE 5.8 mph - N/A   Clear
4:53 AM 36.0 °F 31.1 °F 27.0 °F 70% 29.84 in 10.0 mi ENE 5.8 mph - N/A   Mostly Cloudy
5:53 AM 37.0 °F 31.0 °F 27.0 °F 67% 29.84 in 10.0 mi ENE 8.1 mph - N/A   Overcast
6:53 AM 37.9 °F 29.2 °F 26.1 °F 62% 29.84 in 10.0 mi ENE 15.0 mph - N/A   Overcast
7:53 AM 37.9 °F 30.0 °F 27.0 °F 65% 29.86 in 10.0 mi NE 12.7 mph 16.1 mph N/A   Overcast
8:53 AM 39.0 °F 32.8 °F 27.0 °F 62% 29.88 in 10.0 mi NE 9.2 mph - N/A   Overcast
9:53 AM 39.0 °F 31.0 °F 28.0 °F 65% 29.88 in 10.0 mi NE 13.8 mph - N/A   Overcast
10:53 AM 39.9 °F 31.4 °F 27.0 °F 60% 29.90 in 10.0 mi NE 16.1 mph 23.0 mph N/A   Overcast
11:53 AM 41.0 °F 31.9 °F 28.9 °F 62% 29.91 in 10.0 mi NNE 19.6 mph 27.6 mph N/A   Overcast
12:53 PM 43.0 °F 34.8 °F 28.9 °F 58% 29.91 in 10.0 mi NNE 18.4 mph 26.5 mph N/A   Overcast
1:53 PM 44.1 °F 37.7 °F 28.9 °F 55% 29.90 in 10.0 mi NE 12.7 mph 24.2 mph N/A   Overcast
2:53 PM 44.1 °F 37.1 °F 28.0 °F 53% 29.91 in 10.0 mi NNE 15.0 mph 24.2 mph N/A   Overcast
3:53 PM 43.0 °F 35.1 °F 28.9 °F 58% 29.93 in 10.0 mi North 17.3 mph 24.2 mph N/A   Overcast
4:53 PM 42.1 °F 33.9 °F 28.9 °F 60% 29.96 in 10.0 mi North 17.3 mph 24.2 mph N/A   Overcast
5:53 PM 41.0 °F 33.9 °F 28.9 °F 62% 29.99 in 10.0 mi North 12.7 mph 25.3 mph N/A   Overcast
6:53 PM 41.0 °F 33.9 °F 28.9 °F 62% 30.01 in 10.0 mi North 12.7 mph - N/A   Overcast
7:53 PM 41.0 °F 33.1 °F 28.0 °F 60% 30.02 in 10.0 mi North 15.0 mph 21.9 mph N/A   Overcast
8:53 PM 39.9 °F 33.4 °F 28.0 °F 63% 30.03 in 10.0 mi North 10.4 mph 20.7 mph N/A   Overcast
9:53 PM 39.0 °F 31.8 °F 27.0 °F 62% 30.04 in 10.0 mi NNE 11.5 mph - N/A   Overcast
10:53 PM 37.9 °F 30.9 °F 27.0 °F 65% 30.06 in 10.0 mi North 10.4 mph - N/A   Overcast
11:53 PM 37.9 °F 31.5 °F 27.0 °F 65% 30.06 in 10.0 mi North 9.2 mph - N/A   Overcast